Location: Knowlton
(51.2333°N, 1.2667°E)
Time: 16:28:51
(UTC+00:00)

IRIDIUM 104 - Visible Passes

Search period start: 29 July 2021 00:00
Search period end: 08 August 2021 00:00
Orbit: 776 x 779 km, 86.4° (Epoch: 28 July)

Date Brightness Start Highest point End Pass type
(mag) Time Alt. Az. Time Alt. Az. Time Alt. Az.
29 Jul 6.1 21:04:49 10° NNE 21:08:26 18° ENE 21:11:50 11° ESE visible
29 Jul 4.4 22:44:34 10° N 22:49:48 77° W 22:52:18 32° S visible
30 Jul 6.7 00:27:25 10° NW 00:29:37 13° WNW 00:31:48 10° W visible
30 Jul 6.5 20:32:48 10° NE 20:34:24 11° ENE 20:35:59 10° E visible
30 Jul 4.4 22:11:02 10° N 22:16:15 65° E 22:18:52 29° SSE visible
30 Jul 6.2 23:52:40 10° NNW 23:56:29 21° WNW 23:59:21 14° WSW visible
31 Jul 5.1 21:37:40 10° N 21:42:34 39° ENE 21:45:28 22° SE visible
31 Jul 5.5 23:18:34 10° NNW 23:23:14 34° W 23:25:56 21° SW visible
01 Aug 5.7 21:04:31 10° NNE 21:08:46 24° ENE 21:12:02 14° ESE visible
01 Aug 4.8 22:44:45 10° NNW 22:49:52 56° W 22:52:31 27° SSW visible
02 Aug 6.2 20:31:47 10° NNE 20:34:50 15° ENE 20:37:50 10° E visible
02 Aug 4.3 22:11:08 10° N 22:16:23 88° E 22:19:06 29° S visible
02 Aug 6.6 23:53:22 10° NW 23:56:22 16° WNW 23:59:21 10° WSW visible
03 Aug 4.6 21:37:39 10° N 21:42:47 53° E 21:45:42 25° SSE visible
03 Aug 6.0 23:18:58 10° NNW 23:23:11 25° W 23:26:11 15° WSW visible
04 Aug 5.3 21:04:21 10° NNE 21:09:03 32° ENE 21:12:19 17° SE visible
04 Aug 5.3 22:45:01 10° NNW 22:49:53 41° W 22:52:47 22° SW visible
05 Aug 5.9 20:31:21 10° NNE 20:35:11 20° ENE 20:38:56 10° ESE visible
05 Aug 4.5 22:11:16 10° N 22:16:28 69° W 22:19:24 26° SSW visible
05 Aug 6.8 23:54:37 10° NW 23:56:12 11° WNW 23:57:46 10° W visible
06 Aug 4.3 21:37:42 10° N 21:42:57 72° E 21:46:02 25° SSE visible
06 Aug 6.4 23:19:31 10° NNW 23:23:05 19° WNW 23:26:30 11° WSW visible
07 Aug 4.9 21:04:17 10° N 21:09:18 43° E 21:12:40 19° SE visible
07 Aug 5.8 22:45:20 10° NNW 22:49:52 31° W 22:53:08 16° SW visible
